Time,TemperatureF,DewpointF,PressureIn,WindDirection,WindDirectionDegrees,WindSpeedMPH,WindSpeedGustMPH,Humidity,HourlyPrecipIn,Conditions,Clouds,dailyrainin,SolarRadiationWatts/m^2,SoftwareType,DateUTC
2013-05-23 00:11:00,65.0,56.0,-100.00,SSW,197,5.0,9.0,74,0.00,,,0.00,1.000000,,2013-05-23 05:11:00,
2013-05-23 00:22:00,65.0,56.0,-100.00,SSW,197,5.0,9.0,74,0.00,,,0.00,1.000000,,2013-05-23 05:22:00,
2013-05-23 00:32:00,65.0,56.0,-100.00,SSW,197,5.0,9.0,74,0.00,,,0.00,1.000000,,2013-05-23 05:32:00,
2013-05-23 00:42:00,65.0,56.0,-100.00,SSW,197,5.0,9.0,74,0.00,,,0.00,1.000000,,2013-05-23 05:42:00,
2013-05-23 00:52:00,65.0,56.0,-100.00,SSW,197,5.0,9.0,74,0.00,,,0.00,1.000000,,2013-05-23 05:52:00,
2013-05-23 01:12:00,64.0,56.0,-100.00,SSW,199,5.0,10.0,74,0.00,,,0.00,1.000000,,2013-05-23 06:12:00,
2013-05-23 01:21:00,64.0,56.0,-100.00,SSW,199,5.0,10.0,74,0.00,,,0.00,1.000000,,2013-05-23 06:21:00,
2013-05-23 01:32:00,64.0,56.0,-100.00,SSW,199,5.0,10.0,74,0.00,,,0.00,1.000000,,2013-05-23 06:32:00,
2013-05-23 01:42:00,64.0,56.0,-100.00,SSW,199,5.0,10.0,74,0.00,,,0.00,1.000000,,2013-05-23 06:42:00,
2013-05-23 01:52:00,64.0,56.0,-100.00,SSW,199,5.0,10.0,74,0.00,,,0.00,1.000000,,2013-05-23 06:52:00,
2013-05-23 01:53:00,62.0,55.0,-100.00,South,182,3.0,9.0,77,0.00,,,0.00,1.000000,,2013-05-23 06:53:00,
2013-05-23 02:11:00,62.0,55.0,-100.00,South,182,3.0,9.0,77,0.00,,,0.00,1.000000,,2013-05-23 07:11:00,
2013-05-23 02:21:00,62.0,55.0,-100.00,South,182,3.0,9.0,77,0.00,,,0.00,1.000000,,2013-05-23 07:21:00,
2013-05-23 02:32:00,62.0,55.0,-100.00,South,182,3.0,9.0,77,0.00,,,0.00,1.000000,,2013-05-23 07:32:00,
2013-05-23 02:42:00,62.0,55.0,-100.00,South,182,3.0,9.0,77,0.00,,,0.00,1.000000,,2013-05-23 07:42:00,
2013-05-23 03:11:00,61.0,55.0,-100.00,SSW,196,4.0,6.0,80,0.00,,,0.00,1.000000,,2013-05-23 08:11:00,
2013-05-23 03:22:00,61.0,55.0,-100.00,SSW,196,4.0,6.0,80,0.00,,,0.00,1.000000,,2013-05-23 08:22:00,
2013-05-23 03:32:00,61.0,55.0,-100.00,SSW,196,4.0,6.0,80,0.00,,,0.00,1.000000,,2013-05-23 08:32:00,
2013-05-23 03:42:00,61.0,55.0,-100.00,SSW,196,4.0,6.0,80,0.00,,,0.00,1.000000,,2013-05-23 08:42:00,
2013-05-23 03:51:00,61.0,55.0,-100.00,SSW,196,4.0,6.0,80,0.00,,,0.00,1.000000,,2013-05-23 08:51:00,
2013-05-23 03:53:00,57.0,54.0,-100.00,SE,125,1.0,5.0,91,0.00,,,0.00,1.000000,,2013-05-23 08:53:00,
2013-05-23 04:11:00,57.0,54.0,-100.00,SE,125,1.0,5.0,91,0.00,,,0.00,1.000000,,2013-05-23 09:11:00,
2013-05-23 04:21:00,57.0,54.0,-100.00,SE,125,1.0,5.0,91,0.00,,,0.00,1.000000,,2013-05-23 09:21:00,
2013-05-23 04:33:00,57.0,54.0,-100.00,SE,125,1.0,5.0,91,0.00,,,0.00,1.000000,,2013-05-23 09:33:00,
2013-05-23 04:42:00,57.0,54.0,-100.00,SE,125,1.0,5.0,91,0.00,,,0.00,1.000000,,2013-05-23 09:42:00,
2013-05-23 05:12:00,56.0,54.0,-100.00,SE,126,0.0,4.0,93,0.00,,,0.00,1.000000,,2013-05-23 10:12:00,
2013-05-23 05:22:00,56.0,54.0,-100.00,SE,126,0.0,4.0,93,0.00,,,0.00,1.000000,,2013-05-23 10:22:00,
2013-05-23 05:32:00,56.0,54.0,-100.00,SE,126,0.0,4.0,93,0.00,,,0.00,1.000000,,2013-05-23 10:32:00,
2013-05-23 05:42:00,56.0,54.0,-100.00,SE,126,0.0,4.0,93,0.00,,,0.00,1.000000,,2013-05-23 10:42:00,
2013-05-23 05:52:00,56.0,54.0,-100.00,SE,126,0.0,4.0,93,0.00,,,0.00,1.000000,,2013-05-23 10:52:00,
2013-05-23 06:11:00,55.0,54.0,-100.00,East,90,0.0,0.0,96,0.00,,,0.00,2.000000,,2013-05-23 11:11:00,
2013-05-23 06:22:00,55.0,54.0,-100.00,East,90,0.0,0.0,96,0.00,,,0.00,2.000000,,2013-05-23 11:22:00,
2013-05-23 06:32:00,55.0,54.0,-100.00,East,90,0.0,0.0,96,0.00,,,0.00,2.000000,,2013-05-23 11:32:00,
2013-05-23 06:42:00,55.0,54.0,-100.00,East,90,0.0,0.0,96,0.00,,,0.00,2.000000,,2013-05-23 11:42:00,
2013-05-23 06:52:00,55.0,54.0,-100.00,East,90,0.0,0.0,96,0.00,,,0.00,2.000000,,2013-05-23 11:52:00,
2013-05-23 07:12:00,58.0,56.0,-100.00,SSE,149,1.0,3.0,92,0.00,,,0.00,53.000000,,2013-05-23 12:12:00,
2013-05-23 07:21:00,58.0,56.0,-100.00,SSE,149,1.0,3.0,92,0.00,,,0.00,53.000000,,2013-05-23 12:21:00,
2013-05-23 07:32:00,58.0,56.0,-100.00,SSE,149,1.0,3.0,92,0.00,,,0.00,53.000000,,2013-05-23 12:32:00,
2013-05-23 07:42:00,58.0,56.0,-100.00,SSE,149,1.0,3.0,92,0.00,,,0.00,53.000000,,2013-05-23 12:42:00,
2013-05-23 07:52:00,58.0,56.0,-100.00,SSE,149,1.0,3.0,92,0.00,,,0.00,53.000000,,2013-05-23 12:52:00,
2013-05-23 08:11:00,64.0,57.0,-100.00,South,187,4.0,8.0,79,0.00,,,0.00,257.000000,,2013-05-23 13:11:00,
2013-05-23 08:22:00,64.0,57.0,-100.00,South,187,4.0,8.0,79,0.00,,,0.00,257.000000,,2013-05-23 13:22:00,
2013-05-23 08:32:00,64.0,57.0,-100.00,South,187,4.0,8.0,79,0.00,,,0.00,257.000000,,2013-05-23 13:32:00,
2013-05-23 08:42:00,64.0,57.0,-100.00,South,187,4.0,8.0,79,0.00,,,0.00,257.000000,,2013-05-23 13:42:00,
2013-05-23 08:52:00,64.0,57.0,-100.00,South,187,4.0,8.0,79,0.00,,,0.00,257.000000,,2013-05-23 13:52:00,
2013-05-23 09:11:00,68.0,56.0,-100.00,SSW,210,6.0,10.0,65,0.00,,,0.00,460.000000,,2013-05-23 14:11:00,
2013-05-23 09:21:00,68.0,56.0,-100.00,SSW,210,6.0,10.0,65,0.00,,,0.00,460.000000,,2013-05-23 14:21:00,
2013-05-23 09:32:00,68.0,56.0,-100.00,SSW,210,6.0,10.0,65,0.00,,,0.00,460.000000,,2013-05-23 14:32:00,
2013-05-23 09:42:00,68.0,56.0,-100.00,SSW,210,6.0,10.0,65,0.00,,,0.00,460.000000,,2013-05-23 14:42:00,
2013-05-23 09:52:00,68.0,56.0,-100.00,SSW,210,6.0,10.0,65,0.00,,,0.00,460.000000,,2013-05-23 14:52:00,
2013-05-23 09:53:00,70.0,56.0,-100.00,SW,222,9.0,15.0,61,0.00,,,0.00,664.000000,,2013-05-23 14:53:00,
2013-05-23 10:11:00,70.0,56.0,-100.00,SW,222,9.0,15.0,61,0.00,,,0.00,664.000000,,2013-05-23 15:11:00,
2013-05-23 10:21:00,70.0,56.0,-100.00,SW,222,9.0,15.0,61,0.00,,,0.00,664.000000,,2013-05-23 15:21:00,
2013-05-23 10:33:00,70.0,56.0,-100.00,SW,222,9.0,15.0,61,0.00,,,0.00,664.000000,,2013-05-23 15:33:00,
2013-05-23 10:42:00,70.0,56.0,-100.00,SW,222,9.0,15.0,61,0.00,,,0.00,664.000000,,2013-05-23 15:42:00,
2013-05-23 11:12:00,73.0,57.0,-100.00,South,190,6.0,13.0,57,0.00,,,0.00,826.000000,,2013-05-23 16:12:00,
2013-05-23 11:23:00,73.0,57.0,-100.00,South,190,6.0,13.0,57,0.00,,,0.00,826.000000,,2013-05-23 16:23:00,
2013-05-23 11:33:00,73.0,57.0,-100.00,South,190,6.0,13.0,57,0.00,,,0.00,826.000000,,2013-05-23 16:33:00,
2013-05-23 11:42:00,73.0,57.0,-100.00,South,190,6.0,13.0,57,0.00,,,0.00,826.000000,,2013-05-23 16:42:00,
2013-05-23 11:52:00,73.0,57.0,-100.00,South,190,6.0,13.0,57,0.00,,,0.00,826.000000,,2013-05-23 16:52:00,
2013-05-23 12:11:00,74.0,55.0,-100.00,SSW,194,10.0,17.0,52,0.00,,,0.00,950.000000,,2013-05-23 17:11:00,
2013-05-23 12:23:00,74.0,55.0,-100.00,SSW,194,10.0,17.0,52,0.00,,,0.00,950.000000,,2013-05-23 17:23:00,
2013-05-23 12:33:00,74.0,55.0,-100.00,SSW,194,10.0,17.0,52,0.00,,,0.00,950.000000,,2013-05-23 17:33:00,
2013-05-23 12:43:00,74.0,55.0,-100.00,SSW,194,10.0,17.0,52,0.00,,,0.00,950.000000,,2013-05-23 17:43:00,
2013-05-23 12:52:00,74.0,55.0,-100.00,SSW,194,10.0,17.0,52,0.00,,,0.00,950.000000,,2013-05-23 17:52:00,
2013-05-23 13:11:00,76.0,56.0,-100.00,SSW,197,8.0,19.0,50,0.00,,,0.00,988.000000,,2013-05-23 18:11:00,
2013-05-23 13:22:00,76.0,56.0,-100.00,SSW,197,8.0,19.0,50,0.00,,,0.00,988.000000,,2013-05-23 18:22:00,
2013-05-23 13:32:00,76.0,56.0,-100.00,SSW,197,8.0,19.0,50,0.00,,,0.00,988.000000,,2013-05-23 18:32:00,
2013-05-23 13:42:00,76.0,56.0,-100.00,SSW,197,8.0,19.0,50,0.00,,,0.00,988.000000,,2013-05-23 18:42:00,
2013-05-23 13:52:00,76.0,56.0,-100.00,SSW,197,8.0,19.0,50,0.00,,,0.00,988.000000,,2013-05-23 18:52:00,
2013-05-23 14:11:00,78.0,56.0,-100.00,SSW,204,9.0,17.0,46,0.00,,,0.00,1002.000000,,2013-05-23 19:11:00,
2013-05-23 14:21:00,78.0,56.0,-100.00,SSW,204,9.0,17.0,46,0.00,,,0.00,1002.000000,,2013-05-23 19:21:00,
2013-05-23 14:32:00,78.0,56.0,-100.00,SSW,204,9.0,17.0,46,0.00,,,0.00,1002.000000,,2013-05-23 19:32:00,
2013-05-23 14:42:00,78.0,56.0,-100.00,SSW,204,9.0,17.0,46,0.00,,,0.00,1002.000000,,2013-05-23 19:42:00,
2013-05-23 14:52:00,78.0,56.0,-100.00,SSW,204,9.0,17.0,46,0.00,,,0.00,1002.000000,,2013-05-23 19:52:00,
2013-05-23 15:11:00,78.0,54.0,-100.00,SW,217,12.0,21.0,43,0.00,,,0.00,972.000000,,2013-05-23 20:11:00,
2013-05-23 15:21:00,78.0,54.0,-100.00,SW,217,12.0,21.0,43,0.00,,,0.00,972.000000,,2013-05-23 20:21:00,
2013-05-23 15:32:00,78.0,54.0,-100.00,SW,217,12.0,21.0,43,0.00,,,0.00,972.000000,,2013-05-23 20:32:00,
2013-05-23 15:42:00,78.0,54.0,-100.00,SW,217,12.0,21.0,43,0.00,,,0.00,972.000000,,2013-05-23 20:42:00,
2013-05-23 15:51:00,78.0,54.0,-100.00,SW,217,12.0,21.0,43,0.00,,,0.00,972.000000,,2013-05-23 20:51:00,
2013-05-23 15:53:00,79.0,54.0,-100.00,SW,227,9.0,18.0,42,0.00,,,0.00,885.000000,,2013-05-23 20:53:00,
2013-05-23 16:11:00,79.0,54.0,-100.00,SW,227,9.0,18.0,42,0.00,,,0.00,885.000000,,2013-05-23 21:11:00,
2013-05-23 16:21:00,79.0,54.0,-100.00,SW,227,9.0,18.0,42,0.00,,,0.00,885.000000,,2013-05-23 21:21:00,
2013-05-23 16:32:00,79.0,54.0,-100.00,SW,227,9.0,18.0,42,0.00,,,0.00,885.000000,,2013-05-23 21:32:00,
2013-05-23 16:43:00,79.0,54.0,-100.00,SW,227,9.0,18.0,42,0.00,,,0.00,885.000000,,2013-05-23 21:43:00,
2013-05-23 17:12:00,78.0,55.0,-100.00,WSW,242,9.0,14.0,45,0.00,,,-99.99,662.000000,,2013-05-23 22:12:00,
2013-05-23 17:22:00,78.0,55.0,-100.00,WSW,242,9.0,14.0,45,0.00,,,-99.99,662.000000,,2013-05-23 22:22:00,
2013-05-23 17:33:00,78.0,55.0,-100.00,WSW,242,9.0,14.0,45,0.00,,,-99.99,662.000000,,2013-05-23 22:33:00,
2013-05-23 17:42:00,78.0,55.0,-100.00,WSW,242,9.0,14.0,45,0.00,,,-99.99,662.000000,,2013-05-23 22:42:00,
2013-05-23 17:52:00,78.0,55.0,-100.00,WSW,242,9.0,14.0,45,0.00,,,-99.99,662.000000,,2013-05-23 22:52:00,
2013-05-23 18:11:00,76.0,55.0,-100.00,WSW,241,10.0,16.0,49,0.00,,,0.00,479.000000,,2013-05-23 23:11:00,
2013-05-23 18:21:00,76.0,55.0,-100.00,WSW,241,10.0,16.0,49,0.00,,,0.00,479.000000,,2013-05-23 23:21:00,
2013-05-23 18:32:00,76.0,55.0,-100.00,WSW,241,10.0,16.0,49,0.00,,,0.00,479.000000,,2013-05-23 23:32:00,
2013-05-23 18:42:00,76.0,55.0,-100.00,WSW,241,10.0,16.0,49,0.00,,,0.00,479.000000,,2013-05-23 23:42:00,
2013-05-23 18:52:00,76.0,55.0,-100.00,WSW,241,10.0,16.0,49,0.00,,,0.00,479.000000,,2013-05-23 23:52:00,
2013-05-23 19:12:00,73.0,56.0,-100.00,WSW,255,8.0,14.0,55,0.00,,,0.00,245.000000,,2013-05-24 00:12:00,
2013-05-23 19:21:00,73.0,56.0,-100.00,WSW,255,8.0,14.0,55,0.00,,,0.00,245.000000,,2013-05-24 00:21:00,
2013-05-23 19:32:00,73.0,56.0,-100.00,WSW,255,8.0,14.0,55,0.00,,,0.00,245.000000,,2013-05-24 00:32:00,
2013-05-23 19:42:00,73.0,56.0,-100.00,WSW,255,8.0,14.0,55,0.00,,,0.00,245.000000,,2013-05-24 00:42:00,
2013-05-23 19:52:00,73.0,56.0,-100.00,WSW,255,8.0,14.0,55,0.00,,,0.00,245.000000,,2013-05-24 00:52:00,
2013-05-23 20:12:00,69.0,55.0,-100.00,WSW,251,8.0,14.0,61,0.00,,,0.00,82.000000,,2013-05-24 01:12:00,
2013-05-23 20:22:00,69.0,55.0,-100.00,WSW,251,8.0,14.0,61,0.00,,,0.00,82.000000,,2013-05-24 01:22:00,
2013-05-23 20:32:00,69.0,55.0,-100.00,WSW,251,8.0,14.0,61,0.00,,,0.00,82.000000,,2013-05-24 01:32:00,
2013-05-23 20:42:00,69.0,55.0,-100.00,WSW,251,8.0,14.0,61,0.00,,,0.00,82.000000,,2013-05-24 01:42:00,
2013-05-23 20:52:00,69.0,55.0,-100.00,WSW,251,8.0,14.0,61,0.00,,,0.00,82.000000,,2013-05-24 01:52:00,
2013-05-23 21:11:00,66.0,54.0,-100.00,WSW,254,4.0,16.0,65,0.00,,,0.00,6.000000,,2013-05-24 02:11:00,
2013-05-23 21:21:00,66.0,54.0,-100.00,WSW,254,4.0,16.0,65,0.00,,,0.00,6.000000,,2013-05-24 02:21:00,
2013-05-23 21:32:00,66.0,54.0,-100.00,WSW,254,4.0,16.0,65,0.00,,,0.00,6.000000,,2013-05-24 02:32:00,
2013-05-23 21:42:00,66.0,54.0,-100.00,WSW,254,4.0,16.0,65,0.00,,,0.00,6.000000,,2013-05-24 02:42:00,
2013-05-23 21:52:00,66.0,54.0,-100.00,WSW,254,4.0,16.0,65,0.00,,,0.00,6.000000,,2013-05-24 02:52:00,
2013-05-23 21:53:00,63.0,54.0,-100.00,WSW,258,4.0,7.0,73,0.00,,,0.00,1.000000,,2013-05-24 02:53:00,
2013-05-23 22:11:00,63.0,54.0,-100.00,WSW,258,4.0,7.0,73,0.00,,,0.00,1.000000,,2013-05-24 03:11:00,
2013-05-23 22:22:00,63.0,54.0,-100.00,WSW,258,4.0,7.0,73,0.00,,,0.00,1.000000,,2013-05-24 03:22:00,
2013-05-23 22:33:00,63.0,54.0,-100.00,WSW,258,4.0,7.0,73,0.00,,,0.00,1.000000,,2013-05-24 03:33:00,
2013-05-23 22:42:00,63.0,54.0,-100.00,WSW,258,4.0,7.0,73,0.00,,,0.00,1.000000,,2013-05-24 03:42:00,
2013-05-23 23:12:00,62.0,55.0,-100.00,West,260,6.0,12.0,77,0.00,,,0.00,1.000000,,2013-05-24 04:12:00,
2013-05-23 23:22:00,62.0,55.0,-100.00,West,260,6.0,12.0,77,0.00,,,0.00,1.000000,,2013-05-24 04:22:00,
2013-05-23 23:33:00,62.0,55.0,-100.00,West,260,6.0,12.0,77,0.00,,,0.00,1.000000,,2013-05-24 04:33:00,
2013-05-23 23:42:00,62.0,55.0,-100.00,West,260,6.0,12.0,77,0.00,,,0.00,1.000000,,2013-05-24 04:42:00,
2013-05-23 23:52:00,62.0,55.0,-100.00,West,260,6.0,12.0,77,0.00,,,0.00,1.000000,,2013-05-24 04:52:00,